• In Kazakhstan
  • List of Countries
  • For 7 days
  • Water Temperature
  • Weather Map
  • News
  • Weather Widgets
  • user-avatar
    Login

    Hourly Weather Belfast

    Today, 25 May, Monday

    Time Temperature Precipitation Wind Pressure Humidity
    00:00 +8°C° 0 mm 2 mps 772 mmHg 90%
    01:00 +8°C° 0 mm 2 mps 772 mmHg 91%
    02:00 +8°C° 0 mm 2 mps 772 mmHg 91%
    03:00 +7°C° 0 mm 2 mps 771 mmHg 91%
    04:00 +8°C° 0 mm 2 mps 771 mmHg 89%
    05:00 +9°C° 0 mm 2 mps 771 mmHg 87%
    06:00 +10°C° 0 mm 2 mps 771 mmHg 86%
    07:00 +12°C° 0 mm 3 mps 771 mmHg 81%
    08:00 +13°C° 0 mm 4 mps 771 mmHg 77%
    09:00 +14°C° 0 mm 5 mps 771 mmHg 73%
    10:00 +15°C° 0 mm 6 mps 771 mmHg 70%
    11:00 +15°C° 0 mm 6 mps 771 mmHg 67%
    12:00 +16°C° 0 mm 6 mps 771 mmHg 64%
    13:00 +16°C° 0 mm 6 mps 771 mmHg 67%
    14:00 +16°C° 0 mm 6 mps 771 mmHg 69%
    15:00 +17°C° 0 mm 6 mps 771 mmHg 71%
    16:00 +16°C° 0.2 mm 5 mps 771 mmHg 78%
    17:00 +14°C° 0.2 mm 5 mps 771 mmHg 84%
    18:00 +13°C° 0.2 mm 4 mps 771 mmHg 90%
    19:00 +12°C° 0 mm 4 mps 771 mmHg 90%
    20:00 +12°C° 0 mm 3 mps 772 mmHg 91%
    21:00 +11°C° 0 mm 3 mps 772 mmHg 91%
    22:00 +11°C° 0 mm 3 mps 772 mmHg 92%
    23:00 +10°C° 0 mm 3 mps 772 mmHg 94%

    Tomorrow, 26 May, Tuesday

    Time Temperature Precipitation Wind Pressure Humidity
    00:00 +10°C° 0 mm 3 mps 772 mmHg 95%
    01:00 +10°C° 0 mm 3 mps 772 mmHg 94%
    02:00 +12°C° 0 mm 2 mps 772 mmHg 93%
    03:00 +12°C° 0 mm 2 mps 773 mmHg 92%
    04:00 +12°C° 0 mm 2 mps 773 mmHg 92%
    05:00 +12°C° 0 mm 2 mps 773 mmHg 92%
    06:00 +12°C° 0 mm 2 mps 774 mmHg 92%
    07:00 +13°C° 0 mm 2 mps 774 mmHg 84%
    08:00 +14°C° 0 mm 2 mps 774 mmHg 76%
    09:00 +15°C° 0 mm 2 mps 775 mmHg 69%
    10:00 +15°C° 0 mm 2 mps 775 mmHg 66%
    11:00 +16°C° 0 mm 2 mps 775 mmHg 63%
    12:00 +17°C° 0 mm 2 mps 775 mmHg 60%
    13:00 +16°C° 0 mm 2 mps 775 mmHg 63%
    14:00 +16°C° 0 mm 2 mps 775 mmHg 65%
    15:00 +16°C° 0 mm 2 mps 775 mmHg 67%
    16:00 +16°C° 0 mm 2 mps 775 mmHg 71%
    17:00 +15°C° 0 mm 2 mps 776 mmHg 75%
    18:00 +13°C° 0 mm 3 mps 776 mmHg 79%
    19:00 +13°C° 0 mm 2 mps 776 mmHg 83%
    20:00 +10°C° 0 mm 2 mps 776 mmHg 87%
    21:00 +9°C° 0 mm 2 mps 777 mmHg 91%
    22:00 +9°C° 0 mm 2 mps 777 mmHg 91%
    23:00 +8°C° 0 mm 2 mps 777 mmHg 91%

    Day after tomorrow, 27 May, Wednesday

    Time Temperature Precipitation Wind Pressure Humidity
    00:00 +8°C° 0 mm 2 mps 777 mmHg 91%
    01:00 +8°C° 0 mm 2 mps 777 mmHg 91%
    02:00 +8°C° 0 mm 1 mps 777 mmHg 91%
    03:00 +8°C° 0 mm 1 mps 777 mmHg 90%
    04:00 +9°C° 0 mm 1 mps 777 mmHg 88%
    05:00 +9°C° 0 mm 1 mps 777 mmHg 87%
    06:00 +10°C° 0 mm 1 mps 777 mmHg 85%
    07:00 +11°C° 0 mm 1 mps 777 mmHg 79%
    08:00 +13°C° 0 mm 1 mps 777 mmHg 74%
    09:00 +14°C° 0 mm 1 mps 777 mmHg 68%
    10:00 +15°C° 0 mm 1 mps 777 mmHg 66%
    11:00 +16°C° 0 mm 1 mps 777 mmHg 64%
    12:00 +18°C° 0 mm 1 mps 777 mmHg 62%
    13:00 +18°C° 0 mm 1 mps 776 mmHg 63%
    14:00 +18°C° 0 mm 1 mps 776 mmHg 64%
    15:00 +18°C° 0 mm 1 mps 776 mmHg 65%
    16:00 +16°C° 0 mm 1 mps 776 mmHg 68%
    17:00 +16°C° 0 mm 1 mps 776 mmHg 71%
    18:00 +15°C° 0 mm 1 mps 775 mmHg 74%
    19:00 +14°C° 0 mm 1 mps 775 mmHg 79%
    20:00 +12°C° 0 mm 1 mps 775 mmHg 84%
    21:00 +11°C° 0 mm 1 mps 775 mmHg 89%
    22:00 +11°C° 0 mm 1 mps 775 mmHg 88%
    23:00 +10°C° 0 mm 1 mps 775 mmHg 88%

    28 May, Thursday

    Time Temperature Precipitation Wind Pressure Humidity
    00:00 +10°C° 0 mm 1 mps 775 mmHg 87%
    01:00 +10°C° 0 mm 1 mps 775 mmHg 86%
    02:00 +10°C° 0 mm 1 mps 774 mmHg 85%
    03:00 +10°C° 0 mm 1 mps 774 mmHg 85%
    04:00 +11°C° 0 mm 1 mps 774 mmHg 83%
    05:00 +11°C° 0 mm 1 mps 774 mmHg 81%
    06:00 +12°C° 0 mm 1 mps 774 mmHg 79%
    07:00 +14°C° 0 mm 1 mps 773 mmHg 73%
    08:00 +15°C° 0 mm 1 mps 773 mmHg 67%
    09:00 +16°C° 0 mm 2 mps 773 mmHg 62%
    10:00 +17°C° 0 mm 2 mps 773 mmHg 60%
    11:00 +18°C° 0 mm 3 mps 772 mmHg 59%
    12:00 +19°C° 0 mm 3 mps 772 mmHg 58%
    13:00 +19°C° 0 mm 3 mps 772 mmHg 58%
    14:00 +19°C° 0 mm 3 mps 771 mmHg 58%
    15:00 +19°C° 0 mm 3 mps 771 mmHg 58%
    16:00 +18°C° 0 mm 3 mps 771 mmHg 64%
    17:00 +18°C° 0 mm 3 mps 770 mmHg 70%
    18:00 +17°C° 0 mm 3 mps 770 mmHg 76%
    19:00 +16°C° 0 mm 3 mps 770 mmHg 81%
    20:00 +13°C° 0 mm 3 mps 770 mmHg 86%
    21:00 +13°C° 0 mm 2 mps 770 mmHg 91%
    22:00 +12°C° 0 mm 2 mps 770 mmHg 90%
    23:00 +12°C° 0 mm 2 mps 769 mmHg 89%

    29 May, Friday

    Time Temperature Precipitation Wind Pressure Humidity
    00:00 +12°C° 0 mm 2 mps 769 mmHg 88%
    01:00 +12°C° 0 mm 2 mps 769 mmHg 88%
    02:00 +12°C° 0 mm 2 mps 769 mmHg 88%
    03:00 +12°C° 0 mm 2 mps 768 mmHg 88%
    04:00 +12°C° 0 mm 2 mps 768 mmHg 87%
    05:00 +13°C° 0 mm 2 mps 768 mmHg 87%
    06:00 +12°C° 0 mm 3 mps 768 mmHg 87%
    07:00 +14°C° 0 mm 3 mps 767 mmHg 82%
    08:00 +15°C° 0 mm 4 mps 767 mmHg 77%
    09:00 +16°C° 0 mm 5 mps 767 mmHg 72%
    10:00 +16°C° 0 mm 5 mps 767 mmHg 66%
    11:00 +17°C° 0 mm 5 mps 766 mmHg 61%
    12:00 +17°C° 0 mm 6 mps 766 mmHg 56%
    13:00 +17°C° 0 mm 6 mps 766 mmHg 56%
    14:00 +17°C° 0 mm 5 mps 766 mmHg 56%
    15:00 +16°C° 0 mm 5 mps 765 mmHg 56%
    16:00 +16°C° 0 mm 5 mps 765 mmHg 60%
    17:00 +15°C° 0 mm 4 mps 765 mmHg 63%
    18:00 +15°C° 0 mm 4 mps 765 mmHg 66%
    19:00 +13°C° 0 mm 4 mps 765 mmHg 69%
    20:00 +12°C° 0 mm 3 mps 765 mmHg 73%
    21:00 +10°C° 0 mm 3 mps 765 mmHg 76%
    22:00 +10°C° 0 mm 3 mps 765 mmHg 78%
    23:00 +9°C° 0 mm 3 mps 765 mmHg 80%

    30 May, Saturday

    Time Temperature Precipitation Wind Pressure Humidity
    00:00 +9°C° 0 mm 2 mps 765 mmHg 82%
    01:00 +9°C° 0 mm 3 mps 765 mmHg 83%
    02:00 +9°C° 0 mm 3 mps 765 mmHg 85%
    03:00 +9°C° 0 mm 3 mps 764 mmHg 86%
    04:00 +10°C° 0 mm 3 mps 764 mmHg 85%
    05:00 +11°C° 0 mm 3 mps 764 mmHg 84%
    06:00 +12°C° 0 mm 3 mps 764 mmHg 83%
    07:00 +13°C° 0 mm 3 mps 764 mmHg 78%
    08:00 +15°C° 0 mm 4 mps 765 mmHg 73%
    09:00 +16°C° 0 mm 5 mps 765 mmHg 68%
    10:00 +17°C° 0 mm 5 mps 765 mmHg 67%
    11:00 +17°C° 0 mm 5 mps 765 mmHg 66%
    12:00 +19°C° 0 mm 5 mps 765 mmHg 65%
    13:00 +19°C° 0 mm 5 mps 765 mmHg 65%
    14:00 +19°C° 0 mm 5 mps 765 mmHg 64%
    15:00 +19°C° 0 mm 5 mps 764 mmHg 64%
    16:00 +19°C° 0 mm 4 mps 764 mmHg 67%
    17:00 +18°C° 0 mm 4 mps 764 mmHg 70%
    18:00 +18°C° 0 mm 3 mps 764 mmHg 74%
    19:00 +16°C° 0 mm 3 mps 764 mmHg 78%
    20:00 +14°C° 0 mm 2 mps 765 mmHg 82%
    21:00 +13°C° 0 mm 2 mps 765 mmHg 86%
    22:00 +12°C° 0 mm 2 mps 765 mmHg 87%
    23:00 +12°C° 0 mm 2 mps 765 mmHg 88%
    Show more